Stanton, MN

6:01 AM CDT on July 24, 2017 (GMT -0500)
Stanton

Weather History for KSYN - November, 2012

Change the Weather History Date:

Sunday, November 11, 2012

  Actual Average (KLVN) Record (KLVN)
Temperature  
Mean Temperature 40 °F -  
Max Temperature 58 °F 39 °F 64 °F (2005)
Min Temperature 23 °F 25 °F -3 °F (1986)
Degree Days  
Heating Degree Days 24    
Moisture  
Dew Point 29 °F    
Average Humidity 79    
Maximum Humidity 90    
Minimum Humidity 65    
Precipitation  
Precipitation 0.02 in - - ()
Sea Level Pressure  
Sea Level Pressure 29.76 in    
Wind  
Wind Speed 13 mph (West)    
Max Wind Speed 22 mph    
Max Gust Speed 28 mph    
Visibility 9 miles    
Events Rain , Snow    
Averages and records for this station are not official NWS values.
T = Trace of Precipitation, MM = Missing Value Source: NWS Daily Summary

Daily Weather History Graph

Daily Weather History Graph

Search for Another Location

Airport or City:

Trip Planner

Search our weather history database for the weather conditions in past years. The results will help you decide how hot, cold, wet, or windy it might be!

Date:

Astronomy

Nov. 11, 2012 Rise Set
Actual Time 7:03 AM CST 4:48 PM CST
Civil Twilight 6:32 AM CST 5:19 PM CST
Nautical Twilight 5:57 AM CST 5:54 PM CST
Astronomical Twilight 5:23 AM CST 6:28 PM CST
Moon 4:13 AM CST (11/11) 3:15 PM CST (11/11)
Length of Visible Light 10h 46m
Length of Day
9h 44m
Waning Crescent, 7% of the Moon is Illuminated
Nov 11
Waning Crescent
Nov 13
New
Nov 20
First Quarter
Nov 28
Full
Dec 6
Last Quarter

Hourly Weather History & Observations

Time (CST) Temp. Windchill Dew Point Humidity Pressure Visibility Wind Dir Wind Speed Gust Speed Precip Events Conditions
12:13 AM 57.4 °F - 53.6 °F 87% 29.57 in 10.0 mi South 6.9 mph - N/A   Overcast
12:32 AM 57.7 °F - 53.6 °F 86% 29.57 in 10.0 mi South 8.1 mph - N/A   Overcast
12:52 AM 58.3 °F - 52.9 °F 82% 29.55 in 10.0 mi South 9.2 mph - N/A Rain Light Rain
1:13 AM 57.7 °F - 53.1 °F 84% 29.52 in 10.0 mi SSE 10.4 mph - N/A   Light Drizzle
1:32 AM 58.1 °F - 52.9 °F 83% 29.55 in 10.0 mi South 8.1 mph - N/A Rain Rain
1:52 AM 58.1 °F - 52.9 °F 83% 29.55 in 10.0 mi South 11.5 mph 19.6 mph N/A   Light Drizzle
2:13 AM 57.7 °F - 52.7 °F 83% 29.56 in 10.0 mi SSW 8.1 mph - 0.01 in   Scattered Clouds
2:32 AM 58.1 °F - 52.7 °F 82% 29.57 in 10.0 mi SSW 11.5 mph - 0.01 in   Mostly Cloudy
2:52 AM 58.3 °F - 52.5 °F 81% 29.58 in 10.0 mi SW 18.4 mph 25.3 mph 0.01 in   Overcast
3:13 AM 54.9 °F - 48.9 °F 80% 29.59 in 10.0 mi West 18.4 mph 26.5 mph N/A   Overcast
3:32 AM 50.9 °F - 46.9 °F 86% 29.60 in 7.0 mi West 17.3 mph - N/A   Overcast
3:52 AM 46.9 °F - 43.9 °F 89% 29.62 in 7.0 mi West 15.0 mph 20.7 mph N/A   Overcast
4:13 AM 45.5 °F 39.6 °F 42.8 °F 90% 29.63 in 10.0 mi West 12.7 mph - N/A   Overcast
4:32 AM 44.4 °F 37.2 °F 41.5 °F 90% 29.64 in 10.0 mi West 16.1 mph - N/A   Overcast
4:52 AM 42.8 °F 36.6 °F 38.5 °F 85% 29.65 in 10.0 mi West 11.5 mph - N/A   Overcast
5:32 AM 41.7 °F 35.6 °F 37.4 °F 85% 29.66 in 10.0 mi West 10.4 mph - N/A   Overcast
5:52 AM 41.0 °F 34.3 °F 37.4 °F 87% 29.66 in 7.0 mi West 11.5 mph - N/A   Drizzle
6:13 AM 39.2 °F 31.6 °F 36.0 °F 88% 29.67 in 7.0 mi West 12.7 mph 23.0 mph N/A   Overcast
6:32 AM 38.8 °F 30.8 °F 36.0 °F 89% 29.69 in 4.0 mi West 13.8 mph - N/A Rain Light Rain
6:52 AM 37.8 °F 29.8 °F 34.9 °F 89% 29.70 in 3.0 mi West 12.7 mph 16.1 mph N/A   Light Drizzle
7:33 AM 35.6 °F 27.5 °F 32.2 °F 87% 29.71 in 10.0 mi West 11.5 mph - 0.01 in   Overcast
7:52 AM 35.1 °F 24.8 °F 32.0 °F 89% 29.71 in 10.0 mi WNW 17.3 mph - 0.01 in   Overcast
8:12 AM 34.7 °F 24.7 °F 32.0 °F 90% 29.75 in 7.0 mi West 16.1 mph 21.9 mph N/A   Overcast
8:33 AM 33.8 °F 23.9 °F 30.9 °F 89% 29.74 in 10.0 mi West 15.0 mph - N/A   Overcast
8:52 AM 33.4 °F 23.1 °F 30.7 °F 90% 29.76 in 10.0 mi West 16.1 mph 20.7 mph N/A   Overcast
9:12 AM 32.9 °F 25.3 °F 30.2 °F 90% 29.76 in 10.0 mi West 9.2 mph 21.9 mph N/A   Overcast
9:32 AM 32.9 °F 24.1 °F 29.8 °F 88% 29.74 in 5.0 mi WNW 11.5 mph - N/A   Overcast
9:52 AM 33.1 °F 24.4 °F 29.5 °F 87% 29.73 in 10.0 mi WNW 11.5 mph - N/A   Overcast
10:12 AM 32.9 °F 22.4 °F 29.1 °F 86% 29.77 in 10.0 mi West 16.1 mph - N/A   Overcast
10:32 AM 32.4 °F 22.1 °F 28.9 °F 87% 29.77 in 3.0 mi WNW 15.0 mph 18.4 mph N/A   Overcast
10:52 AM 32.0 °F 21.6 °F 29.1 °F 89% 29.78 in 4.0 mi West 15.0 mph 18.4 mph N/A   Overcast
11:12 AM 32.0 °F 22.5 °F 29.1 °F 89% 29.77 in 4.0 mi West 12.7 mph - N/A   Overcast
11:32 AM 31.8 °F 22.3 °F 28.8 °F 88% 29.78 in 4.0 mi West 12.7 mph - N/A   Overcast
12:13 PM 31.8 °F 21.8 °F 27.7 °F 85% 29.74 in 10.0 mi WNW 13.8 mph - N/A   Overcast
12:32 PM 31.6 °F 21.2 °F 27.5 °F 85% 29.74 in 10.0 mi West 15.0 mph 20.7 mph N/A   Overcast
12:52 PM 31.5 °F 20.5 °F 27.1 °F 84% 29.76 in 10.0 mi WNW 16.1 mph - N/A   Overcast
1:13 PM 31.1 °F 20.5 °F 26.6 °F 83% 29.78 in 10.0 mi West 15.0 mph 19.6 mph N/A   Overcast
1:32 PM 31.1 °F 20.5 °F 26.4 °F 83% 29.78 in 10.0 mi West 15.0 mph - N/A   Overcast
1:52 PM 30.7 °F 19.6 °F 25.5 °F 81% 29.77 in 10.0 mi West 16.1 mph - N/A   Overcast
2:13 PM 30.9 °F 19.1 °F 25.3 °F 80% 29.75 in 10.0 mi WNW 18.4 mph - N/A   Overcast
2:32 PM 30.7 °F 18.8 °F 24.6 °F 78% 29.78 in 10.0 mi West 18.4 mph - N/A   Overcast
2:52 PM 31.1 °F 20.9 °F 24.8 °F 77% 29.77 in 10.0 mi West 13.8 mph 23.0 mph N/A   Overcast
3:13 PM 30.6 °F 18.6 °F 24.6 °F 79% 29.78 in 10.0 mi West 18.4 mph 23.0 mph N/A   Overcast
3:32 PM 29.8 °F 17.7 °F 23.2 °F 76% 29.80 in 10.0 mi West 18.4 mph - N/A   Overcast
3:52 PM 29.3 °F 18.2 °F 23.0 °F 77% 29.81 in 10.0 mi West 15.0 mph 20.7 mph N/A   Overcast
4:13 PM 28.9 °F 16.9 °F 22.1 °F 76% 29.81 in 10.0 mi WNW 17.3 mph 23.0 mph N/A   Overcast
4:32 PM 28.8 °F 16.6 °F 21.7 °F 75% 29.82 in 10.0 mi WNW 17.3 mph - N/A   Overcast
4:52 PM 28.4 °F 16.2 °F 21.0 °F 74% 29.83 in 10.0 mi West 17.3 mph 25.3 mph N/A   Overcast
5:12 PM 28.4 °F 15.4 °F 20.8 °F 73% 29.83 in 10.0 mi West 19.6 mph 27.6 mph N/A   Overcast
5:32 PM 28.4 °F 15.1 °F 19.9 °F 71% 29.85 in 10.0 mi West 20.7 mph 25.3 mph N/A   Overcast
5:52 PM 28.4 °F 16.2 °F 19.9 °F 71% 29.86 in 10.0 mi West 17.3 mph 21.9 mph N/A   Overcast
6:12 PM 28.8 °F 16.6 °F 20.3 °F 71% 29.87 in 10.0 mi West 17.3 mph 21.9 mph N/A   Overcast
6:32 PM 28.4 °F 15.4 °F 19.0 °F 68% 29.88 in 10.0 mi West 19.6 mph 23.0 mph N/A   Overcast
6:52 PM 28.4 °F 17.0 °F 19.4 °F 69% 29.88 in 10.0 mi West 15.0 mph 24.2 mph N/A   Overcast
7:12 PM 28.0 °F 17.0 °F 18.9 °F 68% 29.88 in 10.0 mi West 13.8 mph 20.7 mph N/A   Overcast
7:32 PM 27.3 °F 14.8 °F 17.4 °F 66% 29.89 in 10.0 mi West 17.3 mph 23.0 mph N/A   Overcast
7:52 PM 27.0 °F 13.5 °F 16.9 °F 66% 29.90 in 10.0 mi West 19.6 mph 26.5 mph N/A   Overcast
8:12 PM 27.0 °F 15.6 °F 17.6 °F 68% 29.91 in 10.0 mi West 13.8 mph 21.9 mph N/A   Overcast
8:32 PM 26.6 °F 14.3 °F 16.7 °F 66% 29.92 in 10.0 mi West 16.1 mph 19.6 mph N/A   Overcast
8:52 PM 26.2 °F 13.8 °F 16.5 °F 67% 29.93 in 10.0 mi West 16.1 mph 19.6 mph N/A   Overcast
9:12 PM 25.5 °F 12.9 °F 15.3 °F 65% 29.93 in 10.0 mi West 16.1 mph 24.2 mph N/A   Overcast
9:32 PM 24.8 °F 11.9 °F 14.4 °F 65% 29.94 in 10.0 mi West 16.1 mph 23.0 mph N/A   Overcast
9:52 PM 24.4 °F 11.9 °F 14.2 °F 65% 29.94 in 10.0 mi West 15.0 mph 23.0 mph N/A   Overcast
10:12 PM 23.7 °F 9.3 °F 13.6 °F 65% 29.95 in 2.5 mi West 19.6 mph 25.3 mph N/A   Haze
10:32 PM 23.4 °F 8.1 °F 13.1 °F 65% 29.95 in 10.0 mi West 21.9 mph 26.5 mph N/A   Overcast
10:53 PM 23.0 °F 8.7 °F 12.7 °F 65% 29.95 in 10.0 mi West 18.4 mph 26.5 mph N/A   Overcast
11:12 PM 23.0 °F 9.2 °F 13.1 °F 66% 29.95 in 10.0 mi West 17.3 mph - N/A   Overcast
11:32 PM 23.0 °F 11.1 °F 13.5 °F 67% 29.95 in 10.0 mi West 12.7 mph 20.7 mph N/A Snow Light Snow
11:53 PM 23.0 °F 9.6 °F 13.8 °F 68% 29.95 in 10.0 mi West 16.1 mph 19.6 mph N/A Snow Light Snow